Hourly Weather Roundup
Issued by NWS Central Illinois

Home | Current Version | Previous Version | Text Only | Print | Product List | Glossary On
Versions: 1 2 3 4 5 6 7 8 9 10 11 12 13 14 15 16 17 18 19 20 21 22 23 24 25 26 27 28 29 30 31 32 33 34 35 36 37 38 39 40 41 42 43 44 45 46 47 48 49 50
000
NZUS43 KILX 260910
HWRILX

AREA WEATHER ROUNDUP
NATIONAL WEATHER SERVICE, LINCOLN IL
400 AM CDT SUN MAR 26 2017


CITY           SKY/WX    TMP DP  RH WIND       PRES   REMARKS
BLOOMINGTON    CLOUDY    55  53  93 S7        29.84S
CHAMPAIGN      CLOUDY    58  53  84 S8        29.84F
DECATUR        CLOUDY    56  53  90 S9        29.84S
EFFINGHAM      CLOUDY    57  56  95 S8        29.87F
FLORA          CLOUDY    57  55  92 S7        29.86F
GALESBURG      CLOUDY    55  54  97 SE5       29.79S
JACKSONVILLE   CLOUDY    52  50  91 S10G17    29.82S
LACON          DRIZZLE   54  54 100 E7        29.81S
LAWRENCEVILLE  LGT RAIN  58  57  97 S13       29.88S
LITCHFIELD     CLOUDY    52  51  97 SW9       29.84S
$$


CITY           SKY/WX    TMP DP  RH WIND       PRES   REMARKS
LINCOLN        MOCLDY    54  54  99 S3        29.83S
MACOMB         CLOUDY    54  53  97 S8        29.80F
MATTOON        CLOUDY    58  54  86 S8        29.85S
MT CARMEL AP   CLOUDY    57  55  91 S8        29.88R
OLNEY-NOBLE AP CLOUDY    55  55 100 S6        29.87S
PARIS          CLOUDY    57  57  99 SE7       29.87F
PEORIA         CLOUDY    56  54  93 S12       29.81S
PONTIAC        CLOUDY    55  55  97 E7        29.84F
RANTOUL        CLOUDY    59  58  95 SE8       29.85S
SPRINGFIELD    CLEAR     53  50  89 S7        29.82F
TAYLORVILLE    CLOUDY    52  52 100 S8        29.83S
$$

...REGIONAL REPORTS...


CITY           SKY/WX    TMP DP  RH WIND       PRES   REMARKS
CHICAGO O`HARE CLOUDY    47  45  93 NE6       29.88F FOG
KANKAKEE       CLOUDY    55  54  97 SE7       29.86F
MOLINE         FOG       48  47  96 E6        29.80F VSB 1/4
MOUNT STERLING CLOUDY    52  50  95 S12       29.79S
MOUNT VERNON   CLOUDY    56  54  93 S6        29.86S
PITTSFIELD     CLOUDY    51  50  95 S13       29.82S
QUINCY         CLOUDY    51  51 100 S13       29.78S FOG
ROCKFORD       CLOUDY    47  44  90 E9        29.87F FOG
$$


CITY           SKY/WX    TMP DP  RH WIND       PRES   REMARKS
BURLINGTON     CLOUDY    54  53  97 SE6       29.77F
CEDAR RAPIDS   FOG       42  42 100 NE12      29.80F VSB 1/4
DES MOINES     LGT RAIN  42  41  96 N8        29.84F FOG
KIRKSVILLE     CLOUDY    46  45  96 NW7       29.80S
OTTUMWA        CLOUDY    45  45 100 N9        29.80S FOG
ST LOUIS       CLOUDY    54  48  80 SW7       29.84F
$$


CITY           SKY/WX    TMP DP  RH WIND       PRES   REMARKS
TERRE HAUTE    LGT RAIN  58  56  93 SE10      29.87F
EVANSVILLE     CLOUDY    59  56  89 S9        29.90S
INDIANAPOLIS   LGT RAIN  57  55  93 SE10      29.92F
LAFAYETTE      RAIN      57  56  96 SE7       29.89F
MADISON        CLOUDY    40  39  97 NE8       29.90F WCI  34
MILWAUKEE      LGT RAIN  39  38  96 NE12      29.94F FOG     WCI  32
$$






USA.gov is the U.S. government's official web portal to all federal, state and local government web resources and services.